sat.trackr.live / text

‹ back to catalog

STARLINK-31160

NORAD 58749 · 2024-005X

PAYLOAD ACTIVE UNKNOWN

§ Identity

Operator
Country
US
Launch date
2024-01-07
Launch site
AFETR
Launch vehicle
Mass (kg)
RCS (m²)

Purposes: comms

External: N2YO · Heavens-Above · Gunter

§ Orbital elements

Epoch: 2026-09-20T04:08:04.654176Z

Period
94.27 min
Inclination
43.0023°
Eccentricity
0.0001488
Mean motion
15.27577893 rev/d
Perigee alt
482.0 km
Apogee alt
484.1 km
Semi-major
6,861.2 km
B*
1.3614e-5
RAAN
201.6678°
Arg perigee
268.2580°
Mean anomaly
91.8101°
Rev number
15,018

§ Raw data

STARLINK-311601 58749U 24005X   26263.17227609  .00000112  00000+0  13614-4 0  99992 58749  43.0023 201.6678 0001488 268.2580  91.8101 15.27577893150188

JSON: /api/v1/satellites/58749 · /tle

For live sub-satellite position, see the globe view (requires WebGL).

§ Visibility from observer

Set your observer location to see the next 7 days of passes ≥ 10°. The values pass through the URL so the page stays shareable.

No JS? Fill the form by hand. The geolocation button needs JavaScript.